Location: Brachstadt
(48.6975°N, 10.6755°E)
Time: 22:17:13
(UTC+00:00)

Cosmos 2285 Rocket - Pass Details

Date: 18 September 2020
Orbit: 970 x 1000 km, 74.0° (Epoch: 30 October)

Event Time Altitude Azimuth Distance (km) Brightness Sun altitude
Rises 19:32:29 0° 190° (S) 3,651 6.8 -21.3°
Reaches altitude 10° 19:35:01 10° 187° (S) 2,710 6.1 -21.6°
Maximum altitude 19:41:12 64° 108° (ESE) 1,073 3.9 -22.5°
Drops below altitude 10° 19:47:28 10° 28° (NNE) 2,745 6.4 -23.4°
Sets 19:50:03 0° 26° (NNE) 3,701 7.1 -23.7°
